Location: Dana
(41.8364°N, 106.7042°W)
Time: 14:36:19
(UTC+00:00)

Transit 2A - Pass Details

Date: 14 May 2026
Orbit: 595 x 948 km, 66.7° (Epoch: 8 June)

Event Time Altitude Azimuth Distance (km) Brightness Sun altitude
Rises 07:57:09 0° 329° (NNW) 3,172 9.8 -28.2°
Reaches altitude 10° 07:59:38 10° 330° (NNW) 2,189 8.9 -28.1°
Enters shadow 08:03:30 54° 336° (NNW) 813 6.3 -27.9°
Maximum altitude 08:04:34 86° 59° (ENE) 668 - -27.9°
Drops below altitude 10° 08:09:03 10° 149° (SSE) 1,994 - -27.6°
Sets 08:11:14 0° 150° (SSE) 2,867 - -27.5°
